Date String (YYYY-MM-DD hh:mm:ss) UTC,Instrument flags,Ambient pressure (hPa),Sample flow (lpm),Bypass flow (lpm),Sample temperature (°C),Ambient temperature (°C),ASC tube jacket temperature (°C),LED temperature (°C),Box temperature (°C),Sample RH (%),Span deviation,Mass concentration (μg/m³),Mass concentration (μg/m³),Mass concentration (μg/m³)
DateTimeUTC,F1_M11,P_M11,Q1_M11,Q2_M11,T1_M11,T2_M11,T3_M11,T4_M11,T5_M11,U1_M11,ZSPAN_M11,X0_M11,X2_M11,X1_M11
2023-02-14 12:00:00,,0801.1,4.99,0.00,22.4,22.3,00.0,31.2,24.3,10.3,0000.0,0005.75,0002.64,0001.47
2023-02-14 12:01:00,,0801.3,4.96,0.00,22.5,22.8,00.0,31.2,24.5,10.1,0000.0,0005.87,0002.64,0001.47
2023-02-14 12:02:00,,0801.2,5.00,0.00,22.5,22.2,00.0,31.3,24.4,10.2,0000.0,0006.36,0002.42,0001.45
2023-02-14 12:03:00,,0801.2,4.99,0.00,22.5,21.8,00.0,31.3,24.3,10.2,0000.0,0006.34,0002.30,0001.43
2023-02-14 12:04:00,,0801.3,4.97,0.00,22.5,21.4,00.0,31.3,24.2,10.2,0000.0,0005.93,0002.18,0001.42
2023-02-14 12:05:00,,0801.2,5.00,0.00,22.4,21.1,00.0,31.3,24.0,10.2,0000.0,0005.67,0002.13,0001.41
2023-02-14 12:06:00,,0801.2,5.00,0.00,22.4,20.9,00.0,31.3,24.0,10.1,0000.0,0005.50,0002.07,0001.40
2023-02-14 12:07:00,,0801.2,5.00,0.00,22.3,20.7,00.0,31.3,23.9,10.1,0000.0,0005.56,0002.05,0001.40
2023-02-14 12:08:00,,0801.3,5.00,0.00,22.3,20.5,00.0,31.3,23.8,10.1,0000.0,0005.60,0002.07,0001.40
2023-02-14 12:09:00,,0801.2,4.99,0.00,22.2,20.3,00.0,31.3,23.8,10.2,0000.0,0005.51,0002.01,0001.38
2023-02-14 12:10:00,,0801.3,5.01,0.00,22.2,20.5,00.0,31.2,23.8,10.3,0000.0,0005.53,0002.00,0001.36
2023-02-14 12:11:00,,0801.3,5.02,0.00,22.3,21.7,00.0,31.2,24.2,10.3,0000.0,0005.32,0001.95,0001.36
2023-02-14 12:12:00,,0801.2,5.01,0.00,22.4,22.9,00.0,31.2,24.5,10.1,0000.0,0005.11,0001.93,0001.36
2023-02-14 12:13:00,,0801.2,4.98,0.00,22.6,23.0,00.0,31.2,24.6,09.8,0000.0,0004.42,0001.93,0001.36
2023-02-14 12:14:00,,0801.2,4.98,0.00,22.6,22.3,00.0,31.3,24.4,09.8,0000.0,0003.68,0001.93,0001.36
2023-02-14 12:15:00,,0801.2,4.97,0.00,22.5,21.8,00.0,31.3,24.3,09.8,0000.0,0003.63,0001.88,0001.35
2023-02-14 12:16:00,,0801.2,5.01,0.00,22.5,21.4,00.0,31.3,24.2,09.7,0000.0,0003.63,0001.89,0001.35
2023-02-14 12:17:00,,0801.2,4.99,0.00,22.4,21.1,00.0,31.3,24.1,09.6,0000.0,0003.65,0001.90,0001.34
2023-02-14 12:18:00,,0801.0,4.99,0.00,22.4,20.8,00.0,31.3,24.0,09.7,0000.0,0003.38,0001.91,0001.34
2023-02-14 12:19:00,,0801.1,5.00,0.00,22.4,20.6,00.0,31.3,23.9,09.8,0000.0,0003.82,0001.92,0001.33
2023-02-14 12:20:00,,0801.1,5.01,0.00,22.3,20.5,00.0,31.3,23.9,09.9,0000.0,0003.96,0001.92,0001.33
2023-02-14 12:21:00,,0801.1,5.00,0.00,22.3,20.4,00.0,31.3,23.8,10.0,0000.0,0003.88,0001.90,0001.32
2023-02-14 12:22:00,,0801.0,5.00,0.00,22.2,20.3,00.0,31.3,23.8,10.0,0000.0,0003.84,0001.91,0001.32
2023-02-14 12:23:00,,0801.1,4.99,0.00,22.2,20.2,00.0,31.2,23.7,10.0,0000.0,0003.82,0001.91,0001.32
2023-02-14 12:24:00,,0801.0,4.99,0.00,22.1,20.2,00.0,31.2,23.7,10.1,0000.0,0003.77,0001.91,0001.31
2023-02-14 12:25:00,,0801.2,5.02,0.00,22.2,21.2,00.0,31.2,23.9,10.2,0000.0,0004.98,0001.90,0001.32
2023-02-14 12:26:00,,0801.3,4.97,0.00,22.3,22.5,00.0,31.1,24.3,10.1,0000.0,0005.41,0001.94,0001.33
2023-02-14 12:27:00,,0801.4,5.01,0.00,22.5,23.1,00.0,31.2,24.5,10.0,0000.0,0005.31,0001.90,0001.33
2023-02-14 12:28:00,,0801.4,5.01,0.00,22.5,22.6,00.0,31.2,24.5,09.9,0000.0,0005.30,0001.87,0001.33
2023-02-14 12:29:00,,0801.4,5.00,0.00,22.5,22.0,00.0,31.3,24.3,09.9,0000.0,0005.25,0001.85,0001.33
2023-02-14 12:30:00,,0801.5,5.01,0.00,22.5,21.5,00.0,31.3,24.2,09.9,0000.0,0005.03,0001.87,0001.33
2023-02-14 12:31:00,,0801.4,5.00,0.00,22.4,21.2,00.0,31.3,24.1,10.0,0000.0,0004.68,0001.84,0001.33
2023-02-14 12:32:00,,0801.4,5.00,0.00,22.4,20.9,00.0,31.3,24.0,10.0,0000.0,0004.75,0001.87,0001.34
2023-02-14 12:33:00,,0801.4,5.00,0.00,22.3,20.7,00.0,31.3,24.0,10.0,0000.0,0004.84,0001.88,0001.34
2023-02-14 12:34:00,,0801.4,5.00,0.00,22.3,20.6,00.0,31.3,23.9,10.2,0000.0,0005.52,0001.91,0001.33
2023-02-14 12:35:00,,0801.3,5.00,0.00,22.3,20.4,00.0,31.3,23.8,10.3,0000.0,0005.71,0001.90,0001.33
2023-02-14 12:36:00,,0801.1,5.00,0.00,22.2,20.3,00.0,31.3,23.8,10.4,0000.0,0004.79,0001.92,0001.34
2023-02-14 12:37:00,,0801.3,5.01,0.00,22.2,20.2,00.0,31.2,23.7,10.3,0000.0,0004.21,0001.94,0001.35
2023-02-14 12:38:00,,0801.2,5.00,0.00,22.1,20.2,00.0,31.2,23.7,10.4,0000.0,0004.51,0002.03,0001.35
2023-02-14 12:39:00,,0801.3,5.00,0.00,22.2,21.3,00.0,31.1,24.0,10.5,0000.0,0004.55,0002.07,0001.37
2023-02-14 12:40:00,,0801.4,5.02,0.00,22.3,22.5,00.0,31.1,24.3,10.4,0000.0,0004.44,0002.05,0001.38
2023-02-14 12:41:00,,0801.4,5.01,0.00,22.4,23.0,00.0,31.1,24.5,10.5,0000.0,0004.32,0002.01,0001.39
2023-02-14 12:42:00,,0801.5,5.02,0.00,22.5,22.4,00.0,31.2,24.4,10.2,0000.0,0004.35,0002.01,0001.39
2023-02-14 12:43:00,,0801.4,5.01,0.00,22.4,21.8,00.0,31.2,24.2,10.3,0000.0,0004.28,0001.99,0001.39
2023-02-14 12:44:00,,0801.5,5.00,0.00,22.4,21.4,00.0,31.3,24.1,10.3,0000.0,0004.26,0001.99,0001.39
2023-02-14 12:45:00,,0801.4,5.00,0.00,22.4,21.1,00.0,31.3,24.0,10.4,0000.0,0003.62,0001.99,0001.39
2023-02-14 12:46:00,,0801.5,5.00,0.00,22.3,20.8,00.0,31.3,23.9,10.5,0000.0,0003.42,0002.00,0001.39
2023-02-14 12:47:00,,0801.5,5.00,0.00,22.3,20.7,00.0,31.3,23.8,10.5,0000.0,0003.29,0001.98,0001.38
2023-02-14 12:48:00,,0801.5,5.00,0.00,22.2,20.5,00.0,31.2,23.8,10.5,0000.0,0003.05,0001.91,0001.37
2023-02-14 12:49:00,,0801.5,5.00,0.00,22.2,20.4,00.0,31.2,23.8,10.7,0000.0,0002.71,0001.79,0001.35
2023-02-14 12:50:00,,0801.6,4.99,0.00,22.2,20.3,00.0,31.2,23.7,10.8,0000.0,0002.58,0001.71,0001.33
2023-02-14 12:51:00,,0801.6,5.01,0.00,22.1,20.5,00.0,31.2,23.7,10.8,0000.0,0002.71,0001.69,0001.30
2023-02-14 12:52:00,,0801.6,4.98,0.00,22.2,21.7,00.0,31.1,24.0,10.6,0000.0,0002.78,0001.69,0001.29
2023-02-14 12:53:00,,0801.5,5.00,0.00,22.3,22.9,00.0,31.1,24.4,10.5,0000.0,0002.96,0001.71,0001.28
2023-02-14 12:54:00,,0801.6,5.00,0.00,22.5,23.2,00.0,31.2,24.6,10.4,0000.0,0003.02,0001.69,0001.27
2023-02-14 12:55:00,,0801.6,5.00,0.00,22.5,22.5,00.0,31.2,24.4,10.5,0000.0,0003.32,0001.69,0001.27
2023-02-14 12:56:00,,0801.7,4.98,0.00,22.5,21.9,00.0,31.3,24.2,10.5,0000.0,0003.42,0001.68,0001.27
2023-02-14 12:57:00,,0801.7,5.00,0.00,22.4,21.5,00.0,31.3,24.1,10.5,0000.0,0003.48,0001.67,0001.26
2023-02-14 12:58:00,,0801.7,5.00,0.00,22.4,21.2,00.0,31.3,24.0,10.4,0000.0,0003.51,0001.67,0001.26
2023-02-14 12:59:00,,0801.7,5.01,0.00,22.4,20.9,00.0,31.3,24.0,10.3,0000.0,0003.59,0001.70,0001.26
